Winter Park, USA 16 day weather forecast

Slopes altitude range 2745 m - 3675m

Number of lifts: 22 Pistes: 143km

In some cases the lift and piste totals shown are for the ski domain (e.g. Three Valleys) rather than individual resort (e.g. Courchevel)

Overview

The 16 day weather forecast is fully updated 4 times every day.

    • Tue 24 APR 2018
    • Tue 24
    • -2C 0C
    • Wed 25 APR 2018
    • Wed 25
    • -8C -7C
    • Thu 26 APR 2018
    • Thu 26
    • -2C -1C
    • Fri 27 APR 2018
    • Fri 27
    • -4C -3C
    • Sat 28 APR 2018
    • Sat 28
    • 1C 2C
    • Sun 29 APR 2018
    • Sun 29
    • -1C 3C
    • Mon 30 APR 2018
    • Mon 30
    • 1C 3C
    • Tue 01 MAY 2018
    • Tue 01
    • 9C 11C
    • Wed 02 MAY 2018
    • Wed 02
    • 8C 13C
    • Thu 03 MAY 2018
    • Thu 03
    • 7C 10C
    • Fri 04 MAY 2018
    • Fri 04
    • 4C 11C
    • Sat 05 MAY 2018
    • Sat 05
    • 7C 18C
    • Sun 06 MAY 2018
    • Sun 06
    • 9C 20C
    • Mon 07 MAY 2018
    • Mon 07
    • 12C 22C
    • Tue 08 MAY 2018
    • Tue 08
    • 13C 25C
    • Wed 09 MAY 2018
    • Wed 09
    • 13C 24C

Date:

Time Type 0°C level Temp Chill Snow Cloud Speed Gust Dir Press
3:00 3742m 4°C 4_7 0cm 100% 7mph 8mph 1016mB
6:00 2947m 0°C 0_3 1cm 99% 3mph 4mph 1021mB
9:00 2649m -1°C -1_4 1cm 100% 4mph 5mph 1024mB
12:00 2466m 0°C 0_4 2cm 100% 4mph 6mph 1026mB
15:00 2482m -2°C -2_6 1cm 98% 6mph 8mph 1026mB
18:00 2513m -2°C -2_7 2cm 99% 7mph 9mph 1025mB
21:00 2327m -3°C -3_5 3cm 100% 5mph 8mph 1023mB
0:00 2308m -3°C -3_4 6cm 100% 4mph 6mph 1024mB
3:00 2106m -5°C -5_2 1cm 99% 2mph 3mph 1028mB
6:00 1644m -7°C -7_2 1cm 70% 2mph 2mph 1030mB
9:00 1586m -8°C -8_5 0cm 28% 5mph 6mph 1029mB
12:00 1563m -7°C -7_6 0cm 17% 6mph 7mph 1029mB
15:00 2801m 1°C 1_3 0cm 0% 3mph 6mph 1026mB
18:00 3256m 8°C 8_1 0cm 0% 1mph 3mph 1022mB
21:00 3544m 7°C 7_2 0cm 0% 2mph 4mph 1018mB
0:00 3683m 7°C 7_2 0cm 0% 2mph 4mph 1016mB
3:00 3485m 0°C 0_7 0cm 0% 7mph 9mph 1018mB
6:00 3350m -1°C -1_9 0cm 10% 9mph 10mph 1018mB
9:00 2589m -1°C -1_10 0cm 7% 10mph 15mph 1017mB
12:00 2491m -1°C -1_9 0cm 20% 9mph 9mph 1019mB
15:00 2995m 4°C 4_3 0cm 0% 3mph 2mph 1021mB
18:00 2908m 5°C 5_5 1cm 33% 5mph 5mph 1022mB
21:00 3005m 2°C 2_5 2cm 99% 5mph 6mph 1020mB
0:00 3129m 2°C 2_4 2cm 96% 4mph 5mph 1020mB
3:00 2437m -2°C -2_2 0cm 46% 2mph 2mph 1023mB
6:00 2287m -3°C -3_4 0cm 32% 4mph 5mph 1024mB
9:00 2260m -3°C -3_6 0cm 28% 6mph 7mph 1023mB
12:00 2308m -3°C -3_6 0cm 23% 6mph 7mph 1022mB
15:00 3539m 6°C 6_1 0cm 0% 1mph 3mph 1019mB
18:00 3604m 10°C 10_4 0cm 0% 4mph 4mph 1016mB
21:00 3822m 10°C 10_6 0cm 0% 6mph 5mph 1013mB
0:00 3874m 9°C 9_6 0cm 0% 6mph 6mph 1011mB
3:00 3669m 2°C 2_3 0cm 0% 3mph 3mph 1014mB
6:00 3767m 1°C 1_6 0cm 0% 6mph 7mph 1014mB
9:00 3779m 1°C 1_7 0cm 37% 7mph 8mph 1012mB
12:00 3705m 2°C 2_7 0cm 30% 7mph 8mph 1012mB
15:00 3991m 11°C 11_3 0cm 22% 3mph 6mph 1009mB
18:00 4004m 15°C 15_4 0cm 56% 4mph 6mph 1006mB
21:00 3816m 10°C 10_2 0cm 98% 2mph 3mph 1003mB
0:00 4018m 8°C 8_4 0cm 99% 4mph 8mph 1003mB
3:00 4015m 4°C 4_6 0cm 100% 6mph 7mph 1005mB
6:00 3920m 2°C 2_7 0cm 100% 7mph 8mph 1005mB
9:00 3741m 2°C 2_11 0cm 70% 11mph 30mph 1006mB
12:00 3323m 3°C 3_9 0cm 43% 9mph 14mph 1008mB
15:00 3489m 7°C 7_8 0cm 0% 8mph 19mph 1008mB
18:00 3817m 13°C 13_7 0cm 2% 7mph 16mph 1006mB
21:00 4095m 13°C 13_4 0cm 91% 4mph 11mph 1003mB
0:00 4069m 12°C 12_6 0cm 96% 6mph 9mph 1002mB
3:00 4042m 6°C 6_7 0cm 99% 7mph 9mph 1005mB
6:00 3963m 3°C 3_8 0cm 99% 8mph 9mph 1007mB
9:00 3564m 2°C 2_9 0cm 83% 9mph 14mph 1008mB
12:00 3446m 3°C 3_8 0cm 41% 8mph 9mph 1009mB
15:00 3602m 9°C 9_5 0cm 33% 5mph 8mph 1008mB
18:00 3874m 16°C 16_1 0cm 54% 1mph 11mph 1007mB
21:00 3940m 12°C 12_4 0cm 92% 4mph 8mph 1005mB
0:00 3731m 8°C 8_7 0cm 96% 7mph 15mph 1006mB
3:00 3868m 5°C 5_8 1cm 99% 8mph 13mph 1009mB
6:00 3590m 2°C 2_7 0cm 99% 7mph 10mph 1010mB
9:00 3702m 9°C 9_3 0cm 95% 3mph 5mph 1010mB
12:00 3600m 11°C 11_5 0cm 97% 5mph 7mph 1011mB
15:00 3548m 15°C 15_4 0cm 100% 4mph 4mph 1010mB
18:00 3588m 21°C 21_4 0cm 69% 4mph 15mph 1007mB
21:00 3863m 21°C 21_12 0cm 77% 12mph 24mph 1004mB
0:00 3939m 20°C 20_13 0cm 88% 13mph 16mph 1004mB
3:00 3774m 16°C 16_8 0cm 100% 8mph 13mph 1007mB
6:00 3473m 13°C 13_8 0cm 100% 8mph 20mph 1009mB
9:00 3085m 9°C 9_4 0cm 61% 4mph 6mph 1010mB
12:00 3024m 13°C 13_6 0cm 35% 6mph 7mph 1011mB
15:00 2932m 13°C 13_10 0cm 21% 10mph 9mph 1010mB
18:00 2815m 14°C 14_11 0cm 46% 11mph 12mph 1008mB
21:00 2981m 13°C 13_13 0cm 98% 13mph 13mph 1006mB
0:00 3100m 13°C 13_7 0cm 99% 7mph 11mph 1006mB
3:00 3152m 11°C 11_3 0cm 98% 3mph 5mph 1009mB
6:00 3071m 8°C 8_3 0cm 97% 3mph 4mph 1010mB
9:00 3050m 8°C 8_4 0cm 100% 4mph 6mph 1010mB
12:00 3081m 10°C 10_3 0cm 100% 3mph 4mph 1011mB
15:00 3048m 13°C 13_4 0cm 98% 4mph 6mph 1012mB
18:00 3141m 18°C 18_12 0cm 92% 12mph 15mph 1012mB
Morning 0.458333mm 2.875 2497m 7°C 7_9 0cm 98% 9mph 13mph 1023mB
Afternoon 0.197917mm 0 2600m 11°C 11_10 0cm 69% 10mph 10mph 1026mB
Morning 0.00520833mm 1.8125 3296m 9°C 9_7 0cm 30% 7mph 8mph 1028mB
Afternoon 0.0572917mm 0 3333m 18°C 18_6 0cm 0% 6mph 5mph 1026mB
Morning 0.817708mm 0 3585m 12°C 12_6 0cm 39% 6mph 7mph 1027mB
Afternoon 0.489583mm 0 3602m 20°C 20_4 0cm 5% 4mph 3mph 1023mB
Morning 1.14062mm 1.25 3686m 14°C 14_5 0cm 54% 5mph 7mph 1024mB
Afternoon 0.28125mm 0 3769m 22°C 22_4 0cm 50% 4mph 8mph 1020mB
Morning 0.776042mm 0 3945m 16°C 16_9 0cm 13% 9mph 11mph 1019mB
Afternoon 0.385417mm 0 3965m 25°C 25_3 0cm 1% 3mph 6mph 1014mB
Morning 0.135417mm 0 4075m 15°C 15_10 0cm 73% 10mph 17mph 1015mB
Afternoon 0.385417mm 0 4068m 24°C 24_9 0cm 47% 9mph 5mph 1013mB

16 day outlook at a glance

Forecast issued: 24/04/2018 05:23:53

Chat

Your comments and questions. In a resort? Let us know what it's like!


Characters left 250

For terms and conditions see Readers Comments on the Cookie and privacy policy page.